Temp
65 65 64 63 62 60 58 56 56 56 56 54 55 54 53 53 53 52 52 49 49 47 46 47 44 43 42 44 45 46 42 41 37 34 35 37 37 37 37 35 39 34 36
61 62 60 59 57 56 56 55 55 55 55 54 54 53 52 51 51 50 46 47 47 45 44 46 44 45 43 43 43 40 40 39 36 32 33 34 35 36 35 34 36 38 35
57 58 57 57 56 55 54 53 54 53 53 53 52 50 49 48 48 47 46 46 45 44 43 43 41 42 41 41 41 40 40 41 38 35 31 34 33 33 32 33 33 33 36
55 54 54 54 53 52 51 51 50 52 51 49 49 48 47 46 46 46 44 43 43 43 44 44 43 43 41 41 41 39 40 38 37 35 33 32 32 32 33 30 28 31 32
47 46 45 47 48 48 46 40 46 48 48 45 44 43 44 44 44 44 44 43 42 41 43 44 42 44 43 43 42 40 39 38 37 35 32 31 30 29 29 30 29 29 27
48 44 44 43 42 41 42 44 42 40 39 41 39 41 41 42 40 41 42 39 40 39 37 39 40 42 41 40 41 40 40 38 36 34 32 30 30 30 32 29 27 25 24
44 44 43 41 40 40 40 40 40 40 40 39 40 40 40 41 40 40 39 39 37 35 35 35 36 37 38 37 38 38 38 39 37 36 33 32 31 32 32 29 27 27 24
45 43 42 41 39 39 38 37 37 38 38 38 38 39 39 39 39 39 38 39 39 38 38 38 38 37 37 36 36 34 34 34 34 34 35 34 34 35 33 32 30 25 22
45 44 43 41 40 39 38 37 36 36 35 35 36 37 36 36 38 37 38 37 36 36 36 37 38 36 36 37 35 33 33 32 36 38 37 36 36 37 33 30 26 26 21
45 42 41 40 39 37 36 35 36 36 35 35 34 34 36 35 38 38 37 37 34 34 34 35 36 36 35 35 34 33 31 30 31 31 33 34 35 35 35 34 30 28 21
44 42 40 39 36 35 34 34 33 33 33 33 33 33 33 34 35 38 37 35 35 33 33 33 34 35 36 35 35 34 33 31 31 31 29 29 30 30 31 32 32 32 26
42 41 39 37 36 35 34 33 33 33 33 33 33 32 33 33 35 37 37 36 35 34 33 33 33 35 35 35 33 34 32 30 29 28 28 26 26 25 24 26 26 26 26
40 37 35 34 34 34 33 33 33 33 33 32 32 32 31 32 33 36 37 35 35 33 33 33 34 34 35 33 33 32 28 28 27 26 27 26 26 24 23 22 22 23 22
36 35 34 34 33 33 34 34 33 33 32 32 31 31 31 31 32 33 34 35 34 33 33 33 32 32 33 32 31 28 28 28 27 27 25 24 22 22 21 21 20 21 20
36 35 34 34 34 33 33 33 33 33 33 32 32 32 31 30 32 33 33 33 33 32 31 30 30 30 28 28 26 25 26 26 26 25 23 22 22 22 20 21 21 20 18
34 34 33 33 33 33 32 31 33 33 34 35 34 32 31 33 34 34 34 34 34 31 30 28 28 28 26 26 22 23 24 25 25 24 23 23 22 22 21 22 22 21 19
34 34 33 33 32 31 31 30 28 31 32 33 34 34 33 33 34 35 34 34 33 31 28 27 27 28 27 26 24 24 24 25 26 25 24 23 23 23 21 21 21 21 21
34 33 34 30 26 29 30 29 28 28 27 28 32 32 33 33 34 33 34 33 30 30 29 26 26 28 28 27 25 25 25 25 25 25 24 23 23 22 22 21 21 20 21
30 28 27 26 24 23 24 23 22 24 27 28 28 30 31 33 33 33 33 30 29 28 27 27 27 28 28 28 26 26 26 25 25 25 24 24 23 23 22 22 22 22 22
30 28 27 28 28 28 27 25 26 20 18 17 16 19 29 30 29 29 30 30 27 24 29 24 26 27 28 28 27 27 26 26 26 26 24 24 24 24 23 22 22 21 21
33 33 32 32 31 30 30 29 27 24 17 16 17 13 21 30 29 29 28 29 28 25 26 25 25 26 28 27 27 26 26 26 26 27 26 25 25 24 24 23 23 22 22
34 33 32 32 31 30 30 30 28 21 20 19 16 21 16 24 27 27 28 29 30 28 24 25 25 26 26 27 27 26 26 26 27 27 26 26 25 25 24 23 22 21 21
33 32 32 31 31 31 30 29 29 28 23 25 23 24 24 26 26 26 28 28 27 27 25 26 25 26 27 28 28 28 26 27 27 28 26 26 25 24 23 22 21 20 20
33 32 31 31 30 30 30 30 30 29 29 22 22 21 25 27 28 28 26 22 22 25 25 26 26 27 27 28 28 28 28 28 28 28 28 26 25 24 23 21 21 21 20
31 31 30 30 31 31 31 31 31 31 31 28 24 26 22 21 28 29 29 26 26 25 26 27 27 27 28 28 28 28 28 28 28 28 28 26 25 23 23 22 21 20 20
30 30 29 30 30 31 32 32 32 32 32 32 32 32 30 24 25 27 29 27 25 26 26 27 28 26 28 28 29 28 28 28 28 27 27 25 24 22 23 22 20 20 19
MSLP
992.11 992.90 993.70 994.46 995.31 996.18 997.11 998.12 999.12 999.86 1000.96 1002.08 1003.04 1004.05 1005.08 1006.04 1006.91 1007.88 1008.85 1010.10 1011.24 1012.51 1013.40 1014.35 1015.36 1016.37 1017.66 1018.36 1019.27 1019.95 1020.60 1021.74 1023.32 1025.73 1025.95 1026.98 1027.77 1028.52 1028.59 1029.08 1029.28 1030.40 1030.94
992.15 992.78 993.42 993.99 994.83 995.97 996.69 997.75 998.56 999.43 1000.50 1001.24 1002.30 1003.51 1004.70 1005.58 1006.57 1007.45 1008.59 1009.70 1010.74 1011.98 1013.11 1013.92 1014.81 1015.93 1016.96 1017.34 1018.89 1019.40 1020.36 1021.60 1022.70 1024.62 1026.35 1027.02 1027.52 1028.34 1028.47 1029.18 1029.39 1030.14 1030.94
992.63 993.00 993.53 994.16 994.63 995.59 996.38 997.34 997.85 998.74 1000.02 1000.76 1002.07 1003.16 1004.15 1005.28 1006.08 1007.31 1008.36 1009.29 1010.24 1011.20 1012.26 1013.35 1014.23 1015.13 1016.14 1016.93 1017.70 1019.00 1020.09 1020.81 1021.89 1023.31 1025.41 1026.13 1027.03 1027.74 1028.66 1029.04 1029.82 1030.52 1031.12
993.24 993.69 994.04 994.36 994.84 995.40 996.23 997.02 997.38 996.89 999.65 1000.72 1001.54 1002.71 1003.88 1004.94 1005.88 1006.98 1008.02 1009.41 1010.17 1011.01 1011.71 1012.43 1013.30 1014.01 1014.94 1016.48 1017.10 1018.24 1019.22 1020.14 1021.64 1022.95 1024.14 1025.61 1026.33 1027.39 1028.26 1028.77 1029.92 1030.42 1030.80
993.88 994.52 995.43 995.20 995.18 995.35 996.12 996.86 997.53 998.74 999.89 1000.19 1001.43 1002.94 1004.17 1005.11 1005.91 1006.99 1007.78 1009.00 1009.88 1010.83 1011.64 1012.24 1012.93 1013.60 1014.29 1015.11 1016.37 1017.68 1018.83 1019.67 1020.74 1022.36 1023.77 1024.99 1025.58 1026.74 1027.20 1028.15 1029.11 1029.95 1030.86
994.09 994.51 995.02 996.60 996.58 996.59 996.56 996.73 998.06 999.51 1000.02 1000.58 1001.74 1002.93 1004.10 1005.16 1005.68 1006.70 1007.63 1008.85 1009.88 1010.59 1011.52 1012.18 1012.75 1013.40 1014.16 1014.87 1015.58 1016.71 1017.64 1018.81 1019.97 1021.26 1022.54 1023.54 1024.16 1025.38 1026.59 1027.56 1028.83 1030.26 1030.86
995.82 996.00 996.34 995.91 996.66 996.54 997.48 997.80 999.16 999.42 1000.32 1001.30 1002.22 1003.14 1004.42 1005.22 1005.80 1006.92 1007.73 1008.78 1009.87 1010.48 1011.24 1011.92 1012.71 1013.17 1013.79 1014.82 1015.76 1016.49 1017.49 1018.13 1018.76 1019.48 1020.90 1022.21 1023.14 1024.27 1025.12 1026.74 1027.84 1028.94 1029.53
996.52 996.24 997.14 997.46 997.39 998.71 998.50 999.14 1000.00 1000.40 1000.92 1001.76 1002.90 1003.56 1004.50 1005.38 1006.12 1007.10 1008.11 1008.94 1009.91 1010.53 1011.20 1011.64 1012.27 1013.16 1013.60 1014.37 1015.64 1016.56 1017.28 1017.92 1018.70 1019.01 1019.67 1020.80 1021.66 1023.44 1024.24 1025.20 1026.82 1028.72 1030.01
996.42 997.20 997.81 998.12 997.96 998.01 999.18 999.17 1000.55 1001.58 1002.01 1002.44 1003.33 1003.81 1005.00 1005.82 1006.84 1007.44 1008.04 1009.19 1010.04 1010.76 1011.40 1011.81 1012.40 1013.15 1013.78 1014.30 1014.91 1016.44 1017.32 1017.88 1018.48 1019.22 1019.96 1019.92 1021.21 1022.59 1023.74 1025.25 1026.80 1027.92 1029.53
996.74 997.55 998.09 999.24 999.86 999.22 999.55 1000.60 1001.44 1001.86 1002.04 1002.95 1003.38 1004.54 1005.36 1006.14 1007.11 1007.85 1008.23 1009.22 1009.84 1010.81 1011.34 1011.90 1012.02 1012.77 1013.66 1014.16 1015.06 1015.97 1016.73 1017.82 1018.80 1019.80 1019.87 1020.48 1021.25 1022.32 1022.82 1023.32 1024.70 1026.05 1027.72
996.82 997.80 998.82 999.66 1000.49 1000.84 1001.35 1000.58 1001.82 1003.43 1003.84 1002.94 1003.70 1004.96 1005.74 1006.18 1007.41 1007.90 1008.25 1009.04 1009.88 1010.56 1011.13 1011.98 1012.18 1012.63 1013.53 1014.22 1014.92 1015.36 1015.85 1017.22 1018.44 1019.16 1019.98 1020.85 1021.38 1022.01 1022.77 1023.26 1023.88 1024.37 1025.82
997.01 998.24 999.09 999.94 1000.55 1001.56 1001.90 1002.03 1001.58 1003.47 1004.19 1004.97 1004.81 1004.74 1006.09 1007.36 1007.42 1007.75 1007.90 1008.90 1009.68 1010.31 1010.71 1011.64 1012.30 1012.66 1013.30 1013.94 1014.72 1015.07 1015.94 1016.86 1017.79 1018.88 1019.88 1020.65 1021.70 1022.06 1022.90 1023.62 1024.15 1024.71 1025.30
997.34 998.62 999.35 999.98 1001.06 1002.05 1002.22 1002.65 1002.45 1003.00 1003.94 1005.26 1006.14 1005.90 1005.56 1007.16 1007.61 1008.05 1008.22 1008.97 1009.58 1010.32 1010.62 1011.25 1011.70 1012.42 1012.90 1013.50 1014.18 1015.18 1015.68 1016.83 1017.67 1018.51 1019.21 1020.54 1021.37 1022.29 1022.84 1024.22 1025.13 1025.61 1026.00
998.01 998.79 999.76 1000.26 1001.16 1002.56 1002.07 1002.85 1003.49 1003.97 1004.72 1005.34 1006.24 1006.78 1006.82 1006.33 1007.63 1007.94 1008.34 1008.99 1009.42 1010.49 1010.90 1011.16 1011.50 1012.36 1012.90 1013.39 1014.24 1014.93 1015.48 1016.25 1017.31 1018.22 1019.20 1020.37 1021.12 1022.66 1022.84 1023.42 1024.92 1026.17 1026.56
998.76 999.98 1000.36 1000.16 1001.68 1002.81 1002.73 1002.78 1002.98 1004.26 1005.15 1005.35 1005.79 1006.07 1006.57 1006.66 1007.03 1007.73 1008.31 1008.69 1009.04 1010.02 1010.88 1011.41 1011.97 1012.48 1013.01 1013.81 1014.43 1015.22 1015.66 1016.22 1016.96 1017.81 1019.02 1020.10 1020.98 1022.30 1022.79 1023.21 1024.27 1025.41 1025.98
999.31 1000.02 1000.45 1001.34 1002.52 1003.20 1003.40 1003.54 1004.24 1004.69 1005.14 1005.61 1006.05 1006.00 1006.59 1006.56 1006.86 1007.55 1007.98 1008.53 1008.99 1009.85 1010.47 1010.99 1011.68 1012.13 1012.88 1013.51 1014.24 1014.97 1015.44 1015.98 1016.65 1017.60 1018.52 1019.52 1020.26 1021.41 1022.35 1023.23 1024.02 1024.58 1025.49
1000.17 1000.89 1002.00 1003.02 1003.64 1004.15 1004.38 1004.54 1005.16 1005.44 1005.70 1006.14 1006.86 1007.37 1007.46 1007.45 1007.08 1007.41 1007.95 1008.52 1009.15 1009.76 1010.08 1010.77 1011.22 1011.86 1012.37 1013.15 1014.12 1014.59 1015.17 1015.39 1015.84 1016.96 1018.08 1019.04 1019.85 1020.62 1021.71 1022.71 1023.32 1024.06 1024.93
1001.24 1001.93 1002.54 1003.30 1004.04 1004.38 1004.56 1004.75 1005.27 1006.24 1007.15 1007.39 1007.63 1008.08 1008.29 1007.63 1007.38 1007.54 1007.86 1008.78 1009.69 1009.75 1010.05 1010.37 1010.74 1011.56 1011.88 1012.82 1013.52 1014.43 1014.65 1015.37 1015.63 1016.62 1017.48 1018.46 1019.19 1019.89 1021.12 1021.94 1022.69 1023.51 1023.99
1001.86 1002.74 1003.20 1003.73 1004.18 1004.74 1005.14 1005.55 1006.12 1007.10 1007.66 1008.17 1008.62 1008.32 1007.78 1007.80 1007.43 1007.56 1008.04 1008.57 1009.08 1009.59 1009.58 1009.87 1010.50 1011.19 1011.92 1012.12 1013.03 1013.72 1014.06 1014.60 1015.11 1016.02 1016.86 1017.77 1018.60 1019.46 1020.33 1021.18 1021.94 1022.70 1023.28
1002.62 1003.11 1003.55 1003.89 1004.35 1004.51 1005.43 1006.18 1006.82 1007.84 1008.42 1008.66 1008.86 1008.27 1008.19 1007.75 1007.53 1007.81 1008.22 1008.39 1008.44 1008.83 1009.22 1009.88 1010.60 1011.04 1011.18 1011.75 1012.46 1013.01 1013.49 1014.03 1014.63 1015.40 1016.18 1017.11 1017.90 1018.57 1019.38 1020.20 1021.04 1021.89 1022.56
1002.94 1003.26 1003.58 1003.97 1004.50 1004.92 1005.59 1006.18 1006.77 1007.41 1007.88 1008.44 1008.67 1008.67 1008.23 1007.82 1007.59 1007.32 1007.64 1008.00 1007.90 1008.75 1009.23 1009.74 1010.07 1010.61 1011.00 1011.51 1012.03 1012.48 1012.91 1013.32 1013.92 1014.64 1015.47 1016.36 1017.14 1017.92 1018.66 1019.45 1020.28 1021.22 1022.03
1003.01 1003.51 1003.76 1004.08 1004.52 1005.22 1005.62 1005.93 1006.27 1006.66 1007.31 1007.94 1008.20 1008.37 1008.30 1007.54 1007.05 1006.97 1007.29 1007.68 1007.77 1008.12 1008.88 1009.28 1009.73 1010.09 1010.56 1010.89 1011.49 1011.92 1012.40 1012.87 1013.42 1014.04 1014.80 1015.59 1016.37 1017.18 1017.99 1018.86 1019.80 1020.67 1021.47
1002.96 1003.29 1003.66 1004.22 1004.69 1005.22 1005.52 1005.48 1005.77 1006.20 1006.61 1006.94 1007.30 1007.24 1006.92 1006.59 1006.48 1006.81 1007.37 1007.64 1007.89 1008.00 1008.48 1008.92 1009.33 1009.70 1010.06 1010.48 1010.88 1011.38 1011.81 1012.17 1012.69 1013.36 1014.12 1014.88 1015.68 1016.50 1017.38 1018.26 1019.10 1020.02 1020.78
1002.78 1003.35 1003.60 1003.96 1004.57 1004.94 1005.18 1005.30 1005.38 1005.56 1005.67 1005.89 1006.11 1006.16 1006.09 1006.04 1006.19 1006.34 1006.89 1007.63 1007.69 1007.80 1008.17 1008.55 1008.86 1009.17 1009.50 1009.92 1010.34 1010.80 1011.30 1011.76 1012.23 1012.76 1013.39 1014.20 1014.98 1015.88 1016.82 1017.68 1018.51 1019.24 1020.10
1002.87 1003.40 1003.61 1004.02 1004.42 1004.64 1004.78 1004.88 1005.00 1005.04 1005.20 1005.33 1005.33 1005.37 1005.28 1005.43 1005.70 1005.84 1006.22 1006.96 1007.31 1007.45 1007.70 1008.00 1008.25 1008.52 1008.90 1009.31 1009.67 1010.10 1010.66 1011.23 1011.74 1012.28 1012.96 1013.68 1014.44 1015.27 1016.12 1016.98 1017.84 1018.75 1019.52
1003.41 1003.63 1003.95 1004.24 1004.40 1004.30 1004.24 1004.32 1004.39 1004.49 1004.53 1004.70 1004.54 1004.65 1004.68 1004.99 1005.34 1005.47 1005.69 1006.18 1006.58 1006.81 1006.96 1007.28 1007.60 1007.89 1008.20 1008.65 1009.06 1009.45 1010.06 1010.66 1011.24 1011.84 1012.52 1013.28 1014.05 1014.91 1015.69 1016.48 1017.31 1018.01 1018.82
Wind_Speed
13 14 14 13 12 10 11 12 14 13 14 15 17 16 16 16 16 14 13 12 14 12 12 13 11 10 7 7 6 7 5 4 7 3 3 6 9 9 8 6 6 5 5
8 12 10 12 13 14 15 15 15 16 15 16 16 16 15 14 15 16 14 14 15 15 13 12 14 11 12 10 8 9 9 6 5 7 3 4 5 9 9 8 7 6 4
4 6 9 11 14 15 13 14 19 16 15 14 15 15 15 15 16 13 13 14 14 14 15 16 15 16 13 11 11 10 9 7 7 7 6 4 3 8 8 6 6 6 5
4 5 6 10 11 12 13 15 16 15 16 15 14 14 13 13 13 14 14 13 13 13 15 16 16 17 16 14 13 13 11 10 9 9 6 8 7 9 9 9 6 5 6
11 10 9 2 7 11 10 9 13 13 13 13 14 11 11 11 10 13 13 13 13 11 11 11 12 14 19 18 12 11 13 12 10 9 7 6 8 11 13 8 7 7 1
6 9 11 10 6 8 7 13 12 10 11 13 12 13 13 8 16 17 15 12 11 13 11 8 9 16 16 17 16 19 18 15 12 8 6 10 12 11 10 10 8 7 6
5 7 6 12 7 11 8 9 8 12 11 10 11 12 11 8 18 17 16 10 10 10 10 10 8 8 13 11 13 17 13 15 12 11 12 11 11 15 14 14 11 10 3
6 9 7 9 12 9 12 11 9 6 9 9 9 9 9 7 18 17 15 9 8 9 10 12 12 10 11 12 11 10 7 6 6 6 11 15 13 13 14 8 10 7 4
7 6 4 4 8 11 10 13 9 7 7 7 7 10 9 8 15 16 15 9 7 7 7 8 9 9 14 20 14 11 9 5 6 8 11 16 17 21 16 12 10 10 3
8 7 8 6 3 7 8 7 2 10 10 8 9 7 10 8 14 17 12 7 8 7 7 7 15 13 19 20 12 12 11 8 10 9 9 11 17 18 25 14 13 13 5
9 9 8 7 5 6 5 8 8 5 4 8 10 7 7 8 10 17 13 8 8 7 7 6 6 17 19 19 14 10 11 12 10 9 8 8 8 10 8 7 12 11 7
11 10 10 8 6 5 7 6 9 7 6 5 6 8 5 3 9 15 16 12 10 8 8 6 7 19 20 20 14 16 21 13 9 9 9 8 8 7 5 5 5 5 4
11 10 9 9 7 6 7 7 7 7 6 4 2 3 6 4 3 11 15 13 13 6 5 9 13 19 20 15 17 22 18 10 9 10 9 7 6 6 10 7 6 8 7
10 10 8 10 9 5 6 6 5 5 5 5 4 4 3 6 4 4 6 7 10 6 8 8 10 13 13 10 12 15 9 9 10 9 7 6 9 7 7 6 4 3 3
10 8 7 8 8 6 5 5 5 4 3 4 3 4 5 4 4 7 7 6 7 7 8 6 6 7 7 7 7 6 6 8 8 8 9 8 9 7 6 7 6 5 3
11 7 7 7 5 5 6 7 11 9 9 7 4 3 2 2 6 10 11 11 14 18 5 7 7 8 8 9 9 8 7 10 8 8 9 9 10 9 8 7 6 5 5
9 9 7 7 6 5 5 6 5 6 10 8 3 2 5 5 7 8 10 12 17 16 6 7 8 8 7 8 8 8 8 8 10 9 9 9 9 9 11 9 8 7 7
10 9 7 5 4 6 6 5 4 5 3 1 2 4 7 9 10 9 9 11 9 10 6 7 7 7 7 8 8 8 7 8 9 8 9 10 10 10 11 9 9 9 9
7 5 5 4 4 4 4 4 4 3 2 4 2 5 5 8 9 9 12 6 7 8 5 6 5 7 8 7 8 8 10 10 10 9 9 10 10 10 10 10 9 12 10
5 7 5 4 4 5 4 4 3 2 2 3 2 2 3 4 6 6 4 4 5 4 7 5 6 6 7 8 8 9 9 9 10 10 10 10 10 10 10 11 10 10 9
5 4 6 4 3 4 4 4 4 4 3 3 4 3 6 6 5 6 4 4 5 4 5 6 6 6 7 7 8 8 9 9 10 10 10 10 10 10 9 9 9 9 9
5 5 4 3 3 2 2 3 3 3 3 3 3 3 6 3 1 1 2 4 5 6 5 6 6 7 8 9 9 9 9 9 9 10 10 10 10 9 9 9 9 9 9
4 4 4 3 3 3 3 2 3 3 4 5 5 4 3 2 3 2 4 5 4 5 6 6 6 7 7 7 8 9 10 10 10 10 10 10 10 9 10 10 10 10 10
4 3 4 3 3 2 3 4 4 5 4 3 4 4 4 4 4 4 3 4 4 5 6 6 7 9 8 9 8 8 8 8 8 10 13 10 10 11 9 10 10 11 10
4 2 2 2 3 3 3 3 3 3 4 4 4 4 3 3 4 5 5 5 6 6 8 7 7 10 12 13 11 13 12 14 11 12 9 11 12 14 11 10 11 10 11
3 3 2 1 1 1 2 2 3 4 4 4 4 4 4 4 5 5 5 6 7 7 7 7 8 11 14 13 13 15 15 17 14 15 10 9 10 10 9 11 15 10 13
Wind_Direction
200 201 198 199 192 174 167 164 171 166 169 170 177 177 175 179 179 181 175 165 166 160 159 159 150 134 167 147 156 166 124 108 129 74 72 150 160 171 151 142 150 125 156
173 184 177 169 158 166 168 168 167 172 173 170 176 175 173 173 172 171 159 165 167 166 168 171 174 167 172 153 162 134 124 102 118 135 125 164 158 170 149 147 144 145 153
136 172 176 174 164 170 164 169 165 168 169 163 164 164 166 167 166 163 163 163 167 166 166 168 163 157 157 151 149 142 161 154 142 149 149 145 146 153 149 142 150 133 169
133 161 165 168 160 158 161 163 154 166 159 160 161 159 159 160 157 158 153 161 162 168 171 172 166 165 159 165 166 172 168 154 156 150 140 162 169 158 161 155 151 165 172
88 64 18 354 152 151 154 147 142 154 160 144 135 137 140 148 152 156 157 163 163 164 173 173 177 181 170 170 169 168 169 167 152 156 150 148 161 163 179 169 162 156 159
120 123 118 69 34 61 123 135 125 127 130 131 132 141 146 157 156 156 156 159 164 165 168 169 167 164 163 162 163 171 174 174 165 157 158 169 175 175 170 168 152 160 190
88 92 119 116 124 96 70 76 120 129 127 133 132 137 147 146 151 152 148 153 160 165 168 162 156 167 162 161 157 163 173 176 170 165 163 180 165 186 164 168 175 180 161
120 108 112 118 120 126 115 94 79 95 114 128 126 129 127 137 153 156 149 147 161 169 172 169 166 165 166 153 153 157 165 148 158 160 175 178 173 172 175 167 153 115 79
101 110 89 105 122 124 129 122 113 102 113 113 123 120 128 132 153 148 145 146 146 155 156 165 166 162 159 153 150 153 155 143 148 150 149 130 142 161 149 130 152 155 125
110 89 74 66 71 95 105 96 47 153 138 128 108 113 124 137 164 160 149 149 146 146 149 166 165 165 162 155 153 152 154 151 146 143 127 133 156 163 164 173 159 171 142
109 109 109 101 88 108 112 112 105 72 90 119 117 113 115 139 166 170 155 156 162 158 163 166 168 162 167 164 158 164 161 146 145 129 123 133 141 153 169 165 176 174 165
121 119 111 98 105 86 99 96 101 113 96 89 117 118 108 141 173 183 172 168 164 168 171 175 175 175 176 174 164 162 147 142 144 148 150 149 158 150 122 110 99 92 66
121 117 109 107 109 122 116 101 101 98 99 109 111 136 132 146 163 193 190 176 173 172 167 180 174 182 183 178 170 154 147 152 152 158 159 158 152 136 120 99 79 88 70
108 105 111 114 103 93 95 98 118 128 131 139 150 160 154 138 160 171 191 185 180 178 163 168 173 180 182 170 157 153 158 158 161 160 146 128 122 148 131 120 108 131 95
105 114 107 98 100 100 82 99 93 72 116 142 149 140 148 151 174 171 180 184 174 169 144 146 165 172 155 156 149 151 146 147 152 144 145 146 144 151 142 137 130 146 131
109 98 90 89 85 90 93 74 64 83 74 59 87 84 40 109 164 184 188 184 167 154 150 163 175 178 170 169 158 162 163 161 154 150 152 156 155 159 150 147 147 158 148
113 114 108 116 121 126 126 119 114 67 62 67 83 188 184 191 187 192 199 177 167 161 170 175 177 182 174 172 170 174 174 171 154 155 157 158 159 156 155 166 163 164 170
124 119 133 107 104 125 132 99 90 101 118 103 213 207 202 192 182 183 182 162 177 185 174 173 171 179 173 174 171 179 166 164 161 163 160 163 164 162 166 170 172 179 175
104 108 112 106 107 115 112 107 106 124 147 185 238 215 190 180 164 174 176 184 184 195 174 165 170 178 183 175 173 177 173 175 172 171 166 169 168 170 175 175 177 177 172
101 113 112 116 113 105 107 118 129 147 179 176 230 225 195 176 175 173 186 182 161 181 190 158 172 180 175 173 173 176 174 173 173 176 172 174 176 177 178 173 173 172 176
122 119 118 102 105 114 142 166 175 180 175 177 225 246 214 191 192 181 166 193 167 167 170 170 165 173 173 170 175 178 180 179 178 178 174 177 175 176 173 170 167 169 171
138 141 138 131 120 142 188 180 182 158 169 195 218 218 229 179 166 118 152 197 188 170 174 172 174 176 179 174 178 180 184 183 181 179 175 175 172 171 164 165 165 168 171
133 137 130 126 150 174 196 173 189 195 203 213 218 204 185 192 157 179 242 234 181 172 169 173 174 179 178 181 183 188 188 189 186 178 173 171 169 168 166 169 168 169 174
117 144 152 148 155 185 210 215 210 221 227 206 199 201 198 188 193 201 186 209 186 173 175 183 184 184 181 182 185 188 194 194 181 182 175 173 171 168 166 169 175 178 172
99 100 103 137 188 208 208 216 223 230 236 228 218 200 187 174 202 203 189 191 200 187 191 189 190 189 188 188 188 187 188 186 182 178 177 171 172 170 175 175 172 171 168
94 94 114 137 226 221 214 221 225 229 231 236 226 224 197 191 205 207 200 191 201 200 192 195 197 193 194 196 197 186 184 185 178 174 171 169 170 170 173 174 172 169 167